Regional Weather Roundup
Issued by NWS

Home | Current Version | Previous Version | Text Only | Print | Product List | Glossary On
Versions: 1 2 3 4 5 6 7 8 9 10 11 12 13 14 15 16 17 18 19 20 21 22 23 24 25 26 27 28 29 30 31 32 33 34 35 36 37 38 39 40 41 42 43 44 45 46 47 48 49 50
000
ASUS46 KLOX 221312
RWRCA

SOUTHERN CALIFORNIA WEATHER ROUNDUP
NATIONAL WEATHER SERVICE OXNARD CALIFORNIA
500 AM PST MON DEC 22 2014

NOTE: "FAIR" INDICATES FEW OR NO CLOUDS BELOW 12,000 FEET WITH NO
SIGNIFICANT WEATHER AND/OR OBSTRUCTIONS TO VISIBILITY.

  -  STATIONS PRECEEDED BY AN ASTERISK (*) ARE NOT NWS OR FAA
     STATIONS AND ARE NOT SUBJECT TO NWS AND FAA QUALITY CONTROL.

CAZ041-042-087-221400-
LA AND ORANGE COUNTY COASTAL AREAS


CITY           SKY/WX    TMP DP  RH WIND       PRES   REMARKS
L.A. DOWNTOWN  CLEAR     50  47  89 CALM      30.03F FOG
L.A. AIRPORT   PTCLDY    52  50  93 CALM      30.03F FOG
LONG BEACH     PTCLDY    51  49  92 CALM      30.03S FOG

CITY           SKY/WX    TMP DP  RH WIND       PRES   REMARKS
AVALON           N/A     52 N/A N/A MISG        N/A
FULLERTON      CLEAR     50  47  89 CALM      30.02F FOG
HAWTHORNE      PTCLDY    53  51  93 CALM      30.03S FOG
*LEO CARRILLO    N/A     55  48  77 N5          N/A
*LOS ALAMITOS  FAIR      49  49 100 NE3       30.03S
*REDONDO BEACH   N/A     50  48  90 CALM      30.01F
SANTA ANA      CLEAR     54  49  83 CALM      30.03F
STA MONICA APT CLEAR     53  49  86 NE5       30.03F FOG
*UCLA            N/A     55  48  76 NE6       30.00S

$$

CAZ547-548-048-221400-
LA COUNTY VALLEYS AND INLAND EMPIRE


CITY           SKY/WX    TMP DP  RH WIND       PRES   REMARKS
BURBANK        CLEAR     50  44  80 CALM      30.02F
VAN NUYS       CLEAR     59  46  62 VRB6      30.02F

CITY           SKY/WX    TMP DP  RH WIND       PRES   REMARKS
CORONA AIRPORT FOG       39  39 100 CALM      30.05S VSB<1/4
*CHATSWORTH      N/A     68  43  39 NW3       30.01R
CHINO          FOG       43  42  97 CALM      30.05S VSB 1/4
MARCH AFB      CLEAR     42  42 100 CALM      30.05S
*NORTHRIDGE      N/A     66  37  34 VRB7G20     N/A
ONTARIO        CLEAR     49  44  83 N6        30.04S HAZE
*PASADENA        N/A     52  46  82 CALM        N/A
RIVERSIDE      CLEAR     47  43  86 E3        30.03F
SAN BERNARDINO NOT AVBL
*SAN GABRIEL     N/A     49  45  86 CALM      30.01S
*SAN RAFAEL HI   N/A     61  45  55 NE2         N/A
*SAUGUS          N/A     55  43  63 N7          N/A
*WHITEMAN AP   NOT AVBL
*WHITTIER HILL   N/A     58  49  73 CALM        N/A
*WOODLAND HILL   N/A     64  41  42 NE2         N/A

$$

CAZ054-055-221400-
LA AND SAN BERNARDINO COUNTY MOUNTAINS


CITY           SKY/WX    TMP DP  RH WIND       PRES   REMARKS
*BIG BEAR AIRP SUNNY     50  14  23 N7        30.27S
MT WILSON NWS    N/A     57  18  21 NE1         N/A
SANDBERG       PTCLDY    48  42  80 N30G38    30.22F

$$

CAZ028-029-059-060-099-221400-
ANTELOPE VALLEY AND SURROUNDING AREAS


CITY           SKY/WX    TMP DP  RH WIND       PRES   REMARKS
LANCASTER      CLEAR     47  42  83 NW6       30.17S
PALMDALE       CLEAR     43  40  89 SW8       30.17F
*POPPY PARK      N/A     55  46  72 W22G33      N/A

CITY           SKY/WX    TMP DP  RH WIND       PRES   REMARKS
29 PALMS       CLEAR     52  44  74 NW10      30.16S
BARSTOW/DAGGET CLEAR     45  42  89 W13       30.15S
BISHOP         PTCLDY    43  26  51 NW14      30.22F
EDWARDS AFB    CLEAR     36  36 100 N6        30.16R FOG     WCI  31
MOJAVE         FAIR      45  45 100 N8        30.17R
NEEDLES        CLEAR     46  39  76 W6        30.06R
VICTORVILLE      N/A     43  41  93 S7        30.17F

$$

CAZ039-040-221400-
VENTURA AND SANTA BARBARA COUNTY COAST


CITY           SKY/WX    TMP DP  RH WIND       PRES   REMARKS
CAMARILLO      CLEAR     49  45  86 CALM      30.02R
OXNARD AIRPORT CLEAR     55  46  71 CALM      30.02S
*POINT MUGU    CLEAR     54  48  80 CALM      30.03S
SBA APT/GOLETA CLEAR     60  48  64 NE6       30.01S
*SANTA BARBARA   N/A     63  51  63 CALM      30.10R
*VENTURA         N/A     56  46  70 NW3       30.08R

$$

CAZ044-045-221400-
VENTURA COUNTY VALLEYS


CITY           SKY/WX    TMP DP  RH WIND       PRES   REMARKS
*SIMI VALLEY     N/A     67  44  43 N14       29.98F
*OJAI            N/A     45  42  91 CALM      30.01R
*FILLMORE        N/A     48  45  88 CALM      29.94R

$$

CAZ053-221400-
VENTURA COUNTY MOUNTAINS


CITY           SKY/WX    TMP DP  RH WIND       PRES   REMARKS
*LOCKWOOD VLY    N/A     36  37 100 MISG        N/A
*ROSE VALLEY     N/A     37  37 100 MISG        N/A

$$

CAZ034-035-036-221400-
CENTRAL COAST AND SANTA YNEZ VALLEY


CITY           SKY/WX    TMP DP  RH WIND       PRES   REMARKS
SAN LUIS OBISP CLEAR     61  53  75 W9        30.16F
SANTA MARIA    CLEAR     60  51  72 NW9       30.15S

CITY           SKY/WX    TMP DP  RH WIND       PRES   REMARKS
*CAL POLY SLO    N/A     61  55  82 N3G12       N/A
*LOMPOC        CLEAR     61  48  63 W14       30.11F
*PISMO BEACH     N/A     62  54  74 CALM      30.16S
*SANTA YNEZ    FAIR      55  46  71 SW7       30.07S

$$

CAZ037-038-051-221400-
SAN LUIS OBISPO COUNTY INTERIOR AND CUYAMA VALLEY


CITY           SKY/WX    TMP DP  RH WIND       PRES   REMARKS
*CUYAMA          N/A     55  50  84 SE6       30.20F
PASO ROBLES    FOG       50  49  96 NW3       30.22S VSB 1/4

$$

CAZ032-033-061-221400-
SOUTHERN DESERTS


CITY           SKY/WX    TMP DP  RH WIND       PRES   REMARKS
BLYTHE         PTCLDY    46  44  93 CALM      30.03S
IMPERIAL       PTCLDY    46  43  89 W5        30.01S
PALM SPRINGS   CLEAR     51  44  77 NW6       30.03F
THERMAL        CLEAR     42  39  89 NW5       30.01R

$$

ELSEWHERE ACROSS THE WESTERN UNITED STATES AND MEXICO


CITY           SKY/WX    TMP DP  RH WIND       PRES   REMARKS
DENVER, CO     PTCLDY    30  22  72 W7        29.74R WCI  23
GRAND CANYON,  PTCLDY    23  22  96 CALM      30.09S
HONOLULU, HI   PTCLDY    70  64  83 N5        29.98F
KAHULUI, MAUI  PTCLDY    64  59  82 SW6       29.97F
LAKE TAHOE, CA PTCLDY    30  24  78 SW5       30.31F WCI  25
LAS VEGAS, NV  PTCLDY    45  37  73 S14       30.02F
MAMMOTH LAKES, FAIR      32  18  55 NE3       30.34F
MEXICO CITY, M MOCLDY    54  41  62 E5        30.23R
PHOENIX, AZ    MOCLDY    48  43  82 E7        30.00S
PORTLAND, OR   CLOUDY    48  48 100 S5        30.28S
RENO, NV       CLEAR     37  34  89 CALM      30.26F
SALT LAKE CITY LGT RAIN  38  37  97 S9        30.00S FOG     WCI  31
SAN DIEGO, CA  PTCLDY    54  50  86 CALM      30.05R
SAN FRANCISCO, MOCLDY    57  57 100 W5        30.26S
SAN JOSE, CA   CLOUDY    58  56  93 CALM      30.26S
SEATTLE, WA    PTCLDY    46  43  89 E5        30.23R
TIJUANA, MEX   PTCLDY    50  46  87 CALM      30.04S

$$

STATION/POSITION TIME  TEMP    WIND        PRES    VSBY  WAVE
                       AIR SEA DIR/SP/G                  HT/PER
                 (UTC) (F)     (DEG/KT/KT) (MB)    (MI)  (FT/S)
POINT ARGUELLO B NOT AVBL
WEST SANTA BARBA 1300   65 62  340/ 21/ 27 1016.9R        11/14
POINT CONCEPTION NOT AVBL
EAST SANTA BARBA NOT AVBL
SANTA MONICA BAY 1300   63 63  330/  6/  6 1016.8F         5/15


USA.gov is the U.S. government's official web portal to all federal, state and local government web resources and services.